YAOGAN 16A

导读 | 豆包AI

YAOGAN 16A(遥感十六号A星)是中国自主研制的遥感卫星,于北京时间2012年11月25日8时成功发射。该卫星属于中国遥感卫星系列,主要用于国土普查、地理测绘、灾害监测等领域,为经济建设、资源开发和防灾减灾提供精准空间信息支撑,是中国对地观测体系的重要组成,推动了我国航天遥感应用能力的稳步提升。

基本信息
目录编号:
39011
目录名称:
YAOGAN 16A
国际标识:
2012-066A
轨道中心:
EARTH
卫星名称:
YAOGAN 16A
卫星全名:
--
卫星状态:
在轨 (已飞行4879 天)
发射日期:
2012-11-25 UTC
国别 :
中国 (CN)
星等 :
--
轨道信息
数据来源 国际轨道数据 AOE轨道数据
星历时间 2026-04-05T18:04:19+0800
7小时前
查看轨道信息
2026-04-04T03:00:00+0800
1天前
查看轨道信息
半长轴 7466.974km 7466.972km
偏心率 0.0429741 0.0429654
轨道倾角 63.352° 63.352°
近地点辐角 26.511° 26.477°
升交点赤经 117.740° 121.944°
平近点角 335.722° 9.983°
近地点 767.95km 768.013km
远地点 1409.724km 1409.657km
周期 107.023分钟 107.023分钟
每日圈数 13.455066 13.455073
详细信息
使用方式:
暂无
2D轨道图
3D轨道图
轨道高度分析图
轨道倾角分析图
轨道综合分析图
查看轨道综合分析图